Weather History for GMAD - November, 2013

Change the Weather History Date:

Sunday, November 24, 2013

  Actual Average Record
Temperature  
Mean Temperature 64 °F -  
Max Temperature 72 °F - - ()
Min Temperature 56 °F - - ()
Degree Days  
Heating Degree Days 1    
Growing Degree Days 14 (Base 50)    
Moisture  
Dew Point 58 °F    
Average Humidity 82    
Maximum Humidity 94    
Minimum Humidity 60    
Precipitation  
Precipitation 0.00 in - - ()
Sea Level Pressure  
Sea Level Pressure 29.85 in    
Wind  
Wind Speed 6 mph ()    
Max Wind Speed 22 mph    
Max Gust Speed -    
Visibility 6.1 miles    
Events      
T = Trace of Precipitation, MM = Missing Value Source: Averaged Metar Reports

Daily Weather History Graph

Daily Weather History Graph

Search for Another Location

Airport or City:

Trip Planner

Search our weather history database for the weather conditions in past years. The results will help you decide how hot, cold, wet, or windy it might be!

Date:

Astronomy

Nov. 24, 2013 Rise Set
Actual Time 7:10 AM WET 5:37 PM WET
Civil Twilight 6:45 AM WET 6:03 PM WET
Nautical Twilight 6:15 AM WET 6:32 PM WET
Astronomical Twilight 5:46 AM WET 7:01 PM WET
Moon 11:37 PM WET (11/24) 12:02 PM WET (11/24)
Length of Visible Light 11h 18m
Length of Day
10h 26m
Waning Gibbous, 62% of the Moon is Illuminated
Nov 24
Waning Gibbous
Nov 25
Last Quarter
Dec 3
New
Dec 9
First Quarter
Dec 17
Full

Hourly Weather History & Observations

Time (WET) Temp. Dew Point Humidity Pressure Visibility Wind Dir Wind Speed Gust Speed Precip Events Conditions
12:00 AM 59 °F 55 °F 84% 29.92 in 6 mi Calm Calm - -  
12:00 AM 59.0 °F 55.4 °F 88% 29.92 in 6.2 mi Calm Calm - N/A   Unknown
1:00 AM 57.2 °F 53.6 °F 88% 29.89 in 6.2 mi Calm Calm - N/A   Unknown
2:00 AM 57.2 °F 55.4 °F 94% 29.89 in 6.2 mi Calm Calm - N/A   Scattered Clouds
3:00 AM 57 °F 55 °F 89% 29.89 in 6 mi Calm Calm - -  
3:00 AM 57.2 °F 55.4 °F 94% 29.89 in 6.2 mi Calm Calm - N/A   Unknown
4:00 AM 57.2 °F 55.4 °F 94% 29.86 in 6.2 mi Calm Calm - N/A   Unknown
5:00 AM 59.0 °F 55.4 °F 88% 29.86 in 6.2 mi Calm Calm - N/A   Scattered Clouds
6:00 AM 58 °F 55 °F 88% 29.88 in 6 mi Calm Calm - -   Partly Cloudy
6:00 AM 57.2 °F 55.4 °F 94% 29.86 in 6.2 mi Calm Calm - N/A   Scattered Clouds
7:00 AM 59.0 °F 57.2 °F 94% 29.86 in 6.2 mi SW 5.8 mph - N/A   Unknown
8:00 AM 60.8 °F 59.0 °F 94% 29.89 in 6.2 mi SW 5.8 mph - N/A   Unknown
9:00 AM 64 °F 60 °F 84% 29.90 in 6 mi WSW 6.9 mph - -   Mostly Cloudy
9:00 AM 64.4 °F 53.6 °F 68% 29.89 in 6.2 mi WSW 6.9 mph - N/A   Mostly Cloudy
10:00 AM - - N/A% 0.00 in - North - - N/A   Mostly Cloudy
11:00 AM 68.0 °F 60.8 °F 78% 29.89 in 6.2 mi West 13.8 mph - N/A   Mostly Cloudy
12:00 PM 68 °F 61 °F 72% 29.87 in 6 mi West 21.9 mph - -   Mostly Cloudy
12:00 PM 68.0 °F 60.8 °F 78% 29.86 in 6.2 mi West 21.9 mph - N/A   Mostly Cloudy
1:00 PM 71.6 °F 60.8 °F 69% 29.83 in 6.2 mi West 18.4 mph - N/A   Mostly Cloudy
2:00 PM 69.8 °F 59.0 °F 68% 29.80 in 6.2 mi West 20.7 mph - N/A   Mostly Cloudy
3:00 PM 71 °F 60 °F 60% 29.81 in 6 mi West 21.9 mph - -   Mostly Cloudy
3:00 PM 71.6 °F 60.8 °F 69% 29.80 in 6.2 mi West 21.9 mph - N/A   Mostly Cloudy
4:00 PM 69.8 °F 59.0 °F 68% 29.80 in 6.2 mi WSW 18.4 mph - N/A   Mostly Cloudy
5:00 PM 68.0 °F 59.0 °F 73% 29.80 in 6.2 mi West 19.6 mph - N/A   Scattered Clouds
6:00 PM 65 °F 58 °F 72% 29.80 in 6 mi WSW 15.0 mph - -   Partly Cloudy
6:00 PM 64.4 °F 59.0 °F 83% 29.80 in 6.2 mi WSW 15.0 mph - N/A   Scattered Clouds
7:00 PM 64.4 °F 59.0 °F 83% 29.80 in 6.2 mi West 12.7 mph - N/A   Scattered Clouds
8:00 PM 62.6 °F 59.0 °F 88% 29.80 in 6.2 mi WSW 12.7 mph - N/A   Scattered Clouds
9:00 PM 63 °F 59 °F 81% 29.82 in 6 mi SW 6.9 mph - -   Partly Cloudy
9:00 PM 62.6 °F 59.0 °F 88% 29.80 in 6.2 mi SW 6.9 mph - N/A   Scattered Clouds
10:00 PM 62.6 °F 59.0 °F 88% 29.80 in 6.2 mi South 8.1 mph - N/A   Scattered Clouds
11:00 PM 62.6 °F 59.0 °F 88% 29.83 in 6.2 mi Calm Calm - N/A   Scattered Clouds